Weather History for Lynchburg, VA

Change the Weather History Date:

Thursday, August 29, 2013

  Actual Average Record
Temperature  
Mean Temperature 77 °F 73 °F  
Max Temperature 85 °F 84 °F 98 °F (1953)
Min Temperature 68 °F 61 °F 47 °F (1986)
Degree Days  
Heating Degree Days 0 0  
Month to date heating degree days 5 0  
Since 1 June heating degree days 6 15  
Since 1 July heating degree days 5 1  
Cooling Degree Days 12 8  
Month to date cooling degree days 239 270  
Year to date cooling degree days 1006 884  
Since 1 June cooling degree days 871 802  
Growing Degree Days 26 (Base 50)    
Moisture  
Dew Point 70 °F    
Average Humidity 81    
Maximum Humidity 100    
Minimum Humidity 61    
Precipitation  
Precipitation 0.01 in 0.10 in 1.69 in (1988)
Month to date precipitation 3.25 3.04  
Year to date precipitation 33.42 27.71  
Snow  
Snow 0.00 in - - ()
Month to date snowfall 0.0  
Since 1 June snowfall 0.0  
Since 1 July snowfall 0.0  
Snow Depth 0.00 in    
Sea Level Pressure  
Sea Level Pressure 29.95 in    
Wind  
Wind Speed 5 mph (NE)    
Max Wind Speed 14 mph    
Max Gust Speed 18 mph    
Visibility 7 miles    
Events Fog , Rain    
T = Trace of Precipitation, MM = Missing Value Source: NWS Daily Summary

Daily Weather History Graph

Daily Weather History Graph

Search for Another Location

Airport:

Trip Planner

Search our weather history database for the weather conditions in past years. The results will help you decide how hot, cold, wet, or windy it might be!

Date:

Astronomy

Aug. 29, 2013 Rise Set
Actual Time 6:45 AM EDT 7:49 PM EDT
Civil Twilight 6:18 AM EDT 8:16 PM EDT
Nautical Twilight 5:46 AM EDT 8:48 PM EDT
Astronomical Twilight 5:13 AM EDT 9:21 PM EDT
Moon 12:39 AM EDT (8/29) 3:13 PM EDT (8/29)
Length of Visible Light 13h 58m
Length of Day
13h 04m
Last Quarter, 38% of the Moon is Illuminated
Aug 29
Last Quarter
Sep 5
New
Sep 12
First Quarter
Sep 19
Full
Sep 26
Last Quarter

Hourly Weather History & Observations

Time (EDT) Temp. Heat Index Dew Point Humidity Pressure Visibility Wind Dir Wind Speed Gust Speed Precip Events Conditions
12:54 AM 73.0 °F - 71.1 °F 93% 29.86 in 6.0 mi Calm Calm - N/A   Partly Cloudy
1:54 AM 73.0 °F - 71.1 °F 93% 29.86 in 8.0 mi Calm Calm - N/A   Clear
2:54 AM 70.0 °F - 69.1 °F 97% 29.86 in 2.0 mi Calm Calm - N/A   Clear
3:01 AM 69.8 °F - 69.8 °F 100% 29.89 in 1.5 mi Calm Calm - N/A   Clear
3:10 AM 69.8 °F - 69.8 °F 100% 29.89 in 3.0 mi Calm Calm - N/A   Clear
3:16 AM 69.8 °F - 69.8 °F 100% 29.89 in 1.8 mi Calm Calm - N/A   Clear
3:41 AM 69.8 °F - 69.8 °F 100% 29.89 in 1.2 mi Calm Calm - N/A   Clear
3:44 AM 69.8 °F - 69.8 °F 100% 29.89 in 0.8 mi Calm Calm - N/A   Mist
3:54 AM 69.1 °F - 68.0 °F 96% 29.87 in 0.5 mi Calm Calm - N/A Fog Fog
4:03 AM 69.8 °F - 68.0 °F 94% 29.89 in 0.8 mi Calm Calm - N/A   Mostly Cloudy
4:06 AM 69.8 °F - 68.0 °F 94% 29.90 in 1.5 mi WNW 4.6 mph - N/A   Mostly Cloudy
4:08 AM 69.8 °F - 69.8 °F 100% 29.89 in 3.0 mi Calm Calm - N/A   Mostly Cloudy
4:54 AM 70.0 °F - 69.1 °F 97% 29.87 in 4.0 mi Calm Calm - N/A   Overcast
5:54 AM 73.0 °F - 71.1 °F 93% 29.89 in 9.0 mi North 6.9 mph - N/A   Overcast
6:54 AM 73.0 °F - 71.1 °F 93% 29.91 in 6.0 mi NNE 4.6 mph - 0.01 in Rain Light Rain
7:29 AM 73.4 °F - 71.6 °F 94% 29.96 in 2.0 mi NE 8.1 mph - 0.00 in   Overcast
7:54 AM 73.0 °F - 71.1 °F 93% 29.95 in 3.0 mi NE 6.9 mph - 0.00 in   Overcast
8:54 AM 75.0 °F - 71.1 °F 87% 29.96 in 8.0 mi NE 4.6 mph - N/A   Overcast
9:43 AM 78.8 °F - 71.6 °F 78% 29.99 in 10.0 mi Variable 4.6 mph - N/A   Mostly Cloudy
9:54 AM 78.1 °F - 72.0 °F 81% 29.96 in 10.0 mi NNE 6.9 mph - N/A   Mostly Cloudy
10:16 AM 78.8 °F - 71.6 °F 78% 30.00 in 10.0 mi NE 8.1 mph - N/A   Mostly Cloudy
10:51 AM 78.8 °F - 71.6 °F 78% 30.00 in 10.0 mi NE 8.1 mph - N/A   Overcast
10:54 AM 79.0 °F - 71.1 °F 77% 29.97 in 10.0 mi ENE 8.1 mph - N/A   Overcast
11:31 AM 80.6 °F 84.6 °F 71.6 °F 74% 30.01 in 10.0 mi ENE 9.2 mph 17.3 mph N/A   Mostly Cloudy
11:54 AM 80.1 °F 83.6 °F 71.1 °F 74% 29.98 in 10.0 mi ENE 9.2 mph - N/A   Scattered Clouds
12:15 PM 80.6 °F 83.9 °F 69.8 °F 70% 30.01 in 10.0 mi NNE 9.2 mph - N/A   Mostly Cloudy
12:54 PM 80.1 °F 83.2 °F 70.0 °F 71% 29.98 in 10.0 mi North 6.9 mph - N/A   Mostly Cloudy
1:54 PM 82.9 °F 87.0 °F 70.0 °F 65% 29.98 in 10.0 mi ENE 9.2 mph - N/A   Mostly Cloudy
2:43 PM 82.4 °F 86.3 °F 69.8 °F 66% 30.00 in 10.0 mi ENE 11.5 mph - N/A   Mostly Cloudy
2:54 PM 82.9 °F 86.5 °F 69.1 °F 63% 29.97 in 10.0 mi ENE 9.2 mph - N/A   Mostly Cloudy
3:54 PM 84.0 °F 87.8 °F 69.1 °F 61% 29.97 in 10.0 mi ENE 8.1 mph - N/A   Mostly Cloudy
4:54 PM 82.0 °F 84.9 °F 68.0 °F 62% 29.98 in 10.0 mi NE 11.5 mph - N/A   Mostly Cloudy
5:54 PM 82.9 °F 86.5 °F 69.1 °F 63% 29.98 in 10.0 mi NE 9.2 mph - N/A   Clear
6:54 PM 80.1 °F 82.7 °F 68.0 °F 67% 29.99 in 10.0 mi NE 11.5 mph - N/A   Clear
7:54 PM 75.9 °F - 69.1 °F 79% 30.00 in 10.0 mi Calm Calm - N/A   Clear
8:54 PM 73.9 °F - 69.1 °F 85% 30.02 in 10.0 mi ENE 5.8 mph - N/A   Clear
9:54 PM 73.9 °F - 69.1 °F 85% 30.04 in 10.0 mi NE 4.6 mph - N/A   Clear
10:54 PM 70.0 °F - 69.1 °F 97% 30.05 in 7.0 mi Calm Calm - N/A   Clear
11:54 PM 69.1 °F - 68.0 °F 96% 30.05 in 5.0 mi Calm Calm - N/A   Scattered Clouds